AXM705 WMKK-WSSS

Flight info

Callsign AXM705
Flight time 0h 51m
Altitude 27000
Route RUSBU1D RUSBU Y511 TOPOR A464 ARAMA DCT TEBUN TEBUN1B
Aircraft A20N/M-SDE2E3FGHIRWXY/LB1

Departure

Time 2026-05-07 21:41
Airport Kuala Lumpur International Airport (WMKK)

Arrival

Time 2026-05-07 22:33
Airport Singapore Changi Airport (WSSS)
Time Latitude Longitude Altitude Speed Heading
2026-05-07 21:14 2.74979 101.71524 76 ft 0 kts 146°
2026-05-07 21:32 2.74982 101.71522 76 ft 3 kts 146°
2026-05-07 21:33 2.75005 101.71507 65 ft 4 kts 146°
2026-05-07 21:33 2.75027 101.71492 66 ft 4 kts 136°
2026-05-07 21:33 2.75041 101.71471 66 ft 4 kts 99°
2026-05-07 21:33 2.75039 101.71449 67 ft 2 kts 56°
2026-05-07 21:34 2.75036 101.71445 69 ft 0 kts 56°
2026-05-07 21:36 2.75040 101.71452 67 ft 2 kts 56°
2026-05-07 21:36 2.75054 101.71473 72 ft 5 kts 57°
2026-05-07 21:36 2.75079 101.71510 70 ft 8 kts 56°
2026-05-07 21:37 2.75113 101.71560 71 ft 10 kts 54°
2026-05-07 21:37 2.75152 101.71620 71 ft 10 kts 57°
2026-05-07 21:37 2.75189 101.71680 76 ft 11 kts 59°
2026-05-07 21:37 2.75181 101.71745 68 ft 10 kts 136°
2026-05-07 21:38 2.75123 101.71786 72 ft 10 kts 146°
2026-05-07 21:38 2.75065 101.71824 71 ft 9 kts 147°
2026-05-07 21:38 2.75015 101.71857 71 ft 8 kts 146°
2026-05-07 21:38 2.74971 101.71887 83 ft 6 kts 143°
2026-05-07 21:39 2.74948 101.71904 80 ft 3 kts 144°
2026-05-07 21:39 2.74926 101.71918 85 ft 5 kts 146°
2026-05-07 21:39 2.74881 101.71948 84 ft 12 kts 147°
2026-05-07 21:39 2.74780 101.72017 86 ft 19 kts 133°
2026-05-07 21:40 2.74798 101.72133 83 ft 18 kts 55°
2026-05-07 21:40 2.74899 101.72163 83 ft 17 kts 330°
2026-05-07 21:40 2.74997 101.72099 81 ft 19 kts 327°
2026-05-07 21:40 2.75251 101.71930 72 ft 80 kts 326°
2026-05-07 21:41 2.75941 101.71462 78 ft 160 kts 326°
2026-05-07 21:41 2.76920 101.70763 662 ft 172 kts 323°
2026-05-07 21:41 2.77871 101.70088 1629 ft 166 kts 326°
2026-05-07 21:41 2.78896 101.69420 2268 ft 189 kts 328°
2026-05-07 21:42 2.80161 101.68795 2552 ft 219 kts 339°
2026-05-07 21:42 2.81714 101.68234 2761 ft 252 kts 341°
2026-05-07 21:42 2.83427 101.67640 3309 ft 266 kts 340°
2026-05-07 21:42 2.85167 101.67030 4049 ft 271 kts 340°
2026-05-07 21:43 2.86977 101.66388 4819 ft 274 kts 340°
2026-05-07 21:43 2.88828 101.65894 5585 ft 278 kts 354°
2026-05-07 21:43 2.90746 101.66112 6342 ft 282 kts 21°
2026-05-07 21:43 2.92347 101.67224 7051 ft 285 kts 51°
2026-05-07 21:44 2.93372 101.68918 7813 ft 286 kts 65°
2026-05-07 21:44 2.94132 101.70723 8605 ft 287 kts 73°
2026-05-07 21:44 2.94483 101.72687 9383 ft 288 kts 89°
2026-05-07 21:44 2.94212 101.74667 10046 ft 293 kts 107°
2026-05-07 21:45 2.93265 101.76532 10346 ft 312 kts 127°
2026-05-07 21:45 2.91738 101.78161 10660 ft 328 kts 136°
2026-05-07 21:45 2.90038 101.79728 11159 ft 335 kts 137°
2026-05-07 21:45 2.88307 101.81308 11763 ft 339 kts 136°
2026-05-07 21:46 2.86571 101.82906 12370 ft 342 kts 136°
2026-05-07 21:46 2.84824 101.84530 13008 ft 344 kts 135°
2026-05-07 21:46 2.83065 101.86173 13631 ft 347 kts 135°
2026-05-07 21:46 2.81299 101.87828 14174 ft 350 kts 135°
2026-05-07 21:47 2.79511 101.89506 14720 ft 353 kts 135°
2026-05-07 21:47 2.77717 101.91191 15279 ft 356 kts 135°
2026-05-07 21:47 2.75903 101.92896 15834 ft 359 kts 135°
2026-05-07 21:47 2.74068 101.94620 16407 ft 362 kts 135°
2026-05-07 21:48 2.72224 101.96353 16946 ft 365 kts 135°
2026-05-07 21:48 2.70366 101.98098 17479 ft 368 kts 135°
2026-05-07 21:48 2.68493 101.99859 17994 ft 371 kts 135°
2026-05-07 21:48 2.66605 102.01633 18438 ft 374 kts 135°
2026-05-07 21:49 2.64702 102.03422 18857 ft 376 kts 135°
2026-05-07 21:49 2.62793 102.05215 19275 ft 379 kts 135°
2026-05-07 21:49 2.60868 102.07025 19685 ft 381 kts 135°
2026-05-07 21:49 2.58907 102.08824 20096 ft 383 kts 138°
2026-05-07 21:50 2.56813 102.10491 20496 ft 386 kts 141°
2026-05-07 21:50 2.54657 102.12112 20926 ft 389 kts 141°
2026-05-07 21:50 2.52485 102.13729 21348 ft 391 kts 141°
2026-05-07 21:50 2.50290 102.15361 21768 ft 394 kts 141°
2026-05-07 21:51 2.48086 102.17003 22186 ft 396 kts 141°
2026-05-07 21:51 2.45869 102.18656 22604 ft 398 kts 141°
2026-05-07 21:51 2.43642 102.20318 23018 ft 401 kts 141°
2026-05-07 21:51 2.41399 102.21991 23431 ft 403 kts 141°
2026-05-07 21:52 2.39172 102.23652 23763 ft 406 kts 141°
2026-05-07 21:52 2.36878 102.25364 24116 ft 408 kts 141°
2026-05-07 21:52 2.34589 102.27072 24464 ft 411 kts 141°
2026-05-07 21:52 2.32294 102.28785 24805 ft 413 kts 141°
2026-05-07 21:53 2.29985 102.30508 25160 ft 416 kts 141°
2026-05-07 21:53 2.27688 102.32221 25500 ft 418 kts 141°
2026-05-07 21:53 2.25352 102.33964 25844 ft 420 kts 141°
2026-05-07 21:53 2.23004 102.35715 26187 ft 423 kts 141°
2026-05-07 21:54 2.20644 102.37476 26513 ft 425 kts 141°
2026-05-07 21:54 2.18265 102.39251 26777 ft 427 kts 141°
2026-05-07 21:54 2.15905 102.41010 26832 ft 417 kts 141°
2026-05-07 21:54 2.13618 102.42715 26835 ft 406 kts 141°
2026-05-07 21:55 2.11362 102.44397 26834 ft 403 kts 141°
2026-05-07 21:55 2.09117 102.46073 26834 ft 402 kts 141°
2026-05-07 21:55 2.06876 102.47745 26833 ft 402 kts 141°
2026-05-07 21:55 2.04630 102.49421 26834 ft 402 kts 141°
2026-05-07 21:56 2.02490 102.51210 26835 ft 401 kts 133°
2026-05-07 21:56 2.00613 102.53304 26834 ft 410 kts 128°
2026-05-07 21:56 1.98808 102.55567 26831 ft 421 kts 126°
2026-05-07 21:56 1.97026 102.57939 26830 ft 432 kts 125°
2026-05-07 21:57 1.95227 102.60387 26831 ft 442 kts 125°
2026-05-07 21:57 1.93392 102.62891 26832 ft 452 kts 125°
2026-05-07 21:57 1.91503 102.65450 26834 ft 461 kts 125°
2026-05-07 21:57 1.89576 102.68042 26833 ft 470 kts 126°
2026-05-07 21:58 1.87602 102.70677 26831 ft 477 kts 126°
2026-05-07 21:58 1.85596 102.73343 26833 ft 480 kts 126°
2026-05-07 21:58 1.83586 102.76009 26834 ft 480 kts 126°
2026-05-07 21:58 1.81574 102.78675 26836 ft 480 kts 126°
2026-05-07 21:59 1.79567 102.81334 26835 ft 480 kts 126°
2026-05-07 21:59 1.77562 102.83993 26836 ft 480 kts 126°
2026-05-07 21:59 1.75566 102.86638 26795 ft 467 kts 126°
2026-05-07 21:59 1.73763 102.89258 26542 ft 448 kts 119°
2026-05-07 22:00 1.72241 102.91887 26224 ft 427 kts 118°
2026-05-07 22:00 1.70826 102.94428 25918 ft 409 kts 117°
2026-05-07 22:00 1.69503 102.96879 25610 ft 392 kts 117°
2026-05-07 22:00 1.68250 102.99238 25353 ft 376 kts 116°
2026-05-07 22:01 1.67051 103.01510 24986 ft 364 kts 116°
2026-05-07 22:01 1.65882 103.03726 24489 ft 358 kts 116°
2026-05-07 22:01 1.64725 103.05915 23956 ft 354 kts 116°
2026-05-07 22:01 1.63578 103.08079 23422 ft 350 kts 116°
2026-05-07 22:02 1.62329 103.10148 22756 ft 348 kts 126°
2026-05-07 22:02 1.60633 103.11875 22081 ft 349 kts 141°
2026-05-07 22:02 1.58538 103.13087 21429 ft 349 kts 152°
2026-05-07 22:02 1.56323 103.14048 20812 ft 346 kts 155°
2026-05-07 22:03 1.54128 103.14934 20210 ft 343 kts 155°
2026-05-07 22:03 1.51894 103.15823 19658 ft 340 kts 156°
2026-05-07 22:03 1.49701 103.16694 19140 ft 338 kts 156°
2026-05-07 22:03 1.47533 103.17556 18720 ft 335 kts 156°
2026-05-07 22:04 1.45363 103.18419 18293 ft 336 kts 156°
2026-05-07 22:04 1.43221 103.19272 17834 ft 335 kts 156°
2026-05-07 22:04 1.41065 103.20129 17471 ft 331 kts 156°
2026-05-07 22:04 1.38939 103.20975 17152 ft 328 kts 156°
2026-05-07 22:05 1.36824 103.21817 16739 ft 327 kts 156°
2026-05-07 22:05 1.34712 103.22658 16321 ft 326 kts 156°
2026-05-07 22:05 1.32613 103.23494 15897 ft 324 kts 156°
2026-05-07 22:05 1.30527 103.24324 15481 ft 322 kts 156°
2026-05-07 22:06 1.28456 103.25148 15203 ft 317 kts 156°
2026-05-07 22:06 1.26414 103.25961 14925 ft 317 kts 156°
2026-05-07 22:06 1.24408 103.26870 14501 ft 315 kts 150°
2026-05-07 22:06 1.22498 103.27929 14122 ft 313 kts 148°
2026-05-07 22:07 1.20619 103.29015 13747 ft 312 kts 148°
2026-05-07 22:07 1.18723 103.30117 13302 ft 310 kts 148°
2026-05-07 22:07 1.16894 103.31180 12917 ft 307 kts 148°
2026-05-07 22:07 1.15053 103.32248 12537 ft 305 kts 148°
2026-05-07 22:08 1.13224 103.33308 12150 ft 303 kts 149°
2026-05-07 22:08 1.11408 103.34359 11785 ft 301 kts 149°
2026-05-07 22:08 1.09605 103.35403 11407 ft 299 kts 149°
2026-05-07 22:08 1.07815 103.36439 11122 ft 294 kts 149°
2026-05-07 22:09 1.06079 103.37443 10999 ft 282 kts 149°
2026-05-07 22:09 1.04415 103.38404 10869 ft 270 kts 149°
2026-05-07 22:09 1.02822 103.39326 10584 ft 261 kts 149°
2026-05-07 22:09 1.01267 103.40225 10236 ft 256 kts 149°
2026-05-07 22:10 0.99729 103.41117 10015 ft 257 kts 149°
2026-05-07 22:10 0.98325 103.42211 9897 ft 258 kts 130°
2026-05-07 22:10 0.97518 103.43787 9843 ft 257 kts 103°
2026-05-07 22:10 0.97259 103.45558 9776 ft 259 kts 96°
2026-05-07 22:11 0.97123 103.47355 9700 ft 260 kts 95°
2026-05-07 22:11 0.97001 103.49158 9626 ft 260 kts 95°
2026-05-07 22:11 0.96873 103.50958 9557 ft 259 kts 95°
2026-05-07 22:11 0.96739 103.52753 9484 ft 259 kts 95°
2026-05-07 22:12 0.96600 103.54551 9417 ft 259 kts 95°
2026-05-07 22:12 0.96474 103.56340 9328 ft 259 kts 91°
2026-05-07 22:12 0.96579 103.58139 9274 ft 259 kts 84°
2026-05-07 22:12 0.96810 103.59922 9206 ft 259 kts 83°
2026-05-07 22:13 0.96977 103.61101 9157 ft 259 kts 83°
2026-05-07 22:13 0.97233 103.62887 9089 ft 259 kts 83°
2026-05-07 22:13 0.97486 103.64666 9020 ft 259 kts 83°
2026-05-07 22:13 0.97737 103.66448 8943 ft 259 kts 83°
2026-05-07 22:14 0.97987 103.68229 8879 ft 259 kts 83°
2026-05-07 22:14 0.98235 103.70007 8807 ft 259 kts 83°
2026-05-07 22:14 0.98484 103.71787 8737 ft 258 kts 83°
2026-05-07 22:14 0.98732 103.73561 8677 ft 258 kts 83°
2026-05-07 22:15 0.98980 103.75332 8596 ft 258 kts 83°
2026-05-07 22:15 0.99227 103.77103 8527 ft 257 kts 83°
2026-05-07 22:15 0.99474 103.78872 8462 ft 257 kts 83°
2026-05-07 22:15 0.99721 103.80637 8388 ft 257 kts 83°
2026-05-07 22:16 0.99968 103.82407 8320 ft 257 kts 83°
2026-05-07 22:16 1.00212 103.84175 8250 ft 257 kts 83°
2026-05-07 22:16 1.00448 103.85943 8181 ft 257 kts 83°
2026-05-07 22:16 1.00681 103.87712 8110 ft 257 kts 83°
2026-05-07 22:17 1.00914 103.89479 8040 ft 256 kts 83°
2026-05-07 22:17 1.01146 103.91241 7968 ft 256 kts 83°
2026-05-07 22:17 1.01376 103.92992 7899 ft 256 kts 83°
2026-05-07 22:17 1.01611 103.94776 7831 ft 256 kts 83°
2026-05-07 22:18 1.01936 103.96519 7738 ft 256 kts 71°
2026-05-07 22:18 1.03748 103.99536 7618 ft 256 kts 54°
2026-05-07 22:18 1.04796 104.00970 7545 ft 256 kts 54°
2026-05-07 22:19 1.05848 104.02406 7476 ft 256 kts 54°
2026-05-07 22:19 1.06899 104.03847 7411 ft 256 kts 54°
2026-05-07 22:19 1.07943 104.05286 7345 ft 255 kts 54°
2026-05-07 22:19 1.08983 104.06722 7270 ft 255 kts 54°
2026-05-07 22:20 1.10020 104.08157 7198 ft 255 kts 54°
2026-05-07 22:20 1.11058 104.09594 7134 ft 255 kts 54°
2026-05-07 22:20 1.12094 104.11030 7064 ft 255 kts 54°
2026-05-07 22:20 1.13148 104.12451 6941 ft 255 kts 49°
2026-05-07 22:21 1.14511 104.13559 6842 ft 253 kts 28°
2026-05-07 22:21 1.16097 104.14323 6709 ft 253 kts 23°
2026-05-07 22:21 1.17719 104.15008 6561 ft 253 kts 22°
2026-05-07 22:21 1.19345 104.15685 6424 ft 253 kts 22°
2026-05-07 22:22 1.20960 104.16362 6282 ft 252 kts 22°
2026-05-07 22:22 1.22572 104.17042 6128 ft 251 kts 22°
2026-05-07 22:22 1.24180 104.17723 5989 ft 251 kts 22°
2026-05-07 22:22 1.25785 104.18405 5852 ft 250 kts 22°
2026-05-07 22:23 1.27390 104.19088 5709 ft 250 kts 22°
2026-05-07 22:23 1.28985 104.19768 5567 ft 249 kts 22°
2026-05-07 22:23 1.30578 104.20447 5430 ft 248 kts 22°
2026-05-07 22:23 1.32195 104.21049 5255 ft 248 kts 12°
2026-05-07 22:24 1.33894 104.21101 5156 ft 245 kts 352°
2026-05-07 22:24 1.35573 104.20800 5015 ft 245 kts 347°
2026-05-07 22:24 1.37242 104.20434 4866 ft 245 kts 347°
2026-05-07 22:24 1.38902 104.20063 4727 ft 245 kts 347°
2026-05-07 22:25 1.40567 104.19696 4602 ft 244 kts 347°
2026-05-07 22:25 1.42217 104.19335 4453 ft 240 kts 347°
2026-05-07 22:25 1.43811 104.18990 4330 ft 231 kts 347°
2026-05-07 22:25 1.45385 104.18651 4198 ft 232 kts 347°
2026-05-07 22:26 1.46919 104.18321 4106 ft 219 kts 347°
2026-05-07 22:26 1.48371 104.18009 3950 ft 210 kts 347°
2026-05-07 22:26 1.49792 104.17697 3829 ft 210 kts 345°
2026-05-07 22:26 1.51085 104.17074 3699 ft 207 kts 317°
2026-05-07 22:27 1.51794 104.15866 3589 ft 203 kts 279°
2026-05-07 22:27 1.51740 104.14468 3513 ft 203 kts 259°
2026-05-07 22:27 1.51441 104.13086 3500 ft 204 kts 256°
2026-05-07 22:27 1.51110 104.11709 3497 ft 204 kts 256°
2026-05-07 22:28 1.50787 104.10351 3493 ft 204 kts 256°
2026-05-07 22:28 1.50466 104.08972 3368 ft 205 kts 256°
2026-05-07 22:28 1.50149 104.07583 3172 ft 205 kts 256°
2026-05-07 22:28 1.49837 104.06197 3011 ft 203 kts 256°
2026-05-07 22:29 1.49458 104.04846 2825 ft 201 kts 238°
2026-05-07 22:29 1.48532 104.03801 2802 ft 199 kts 220°
2026-05-07 22:29 1.47457 104.03070 2783 ft 182 kts 206°
2026-05-07 22:29 1.46276 104.02592 2312 ft 185 kts 197°
2026-05-07 22:30 1.45068 104.02192 1936 ft 180 kts 198°
2026-05-07 22:30 1.43902 104.01763 1533 ft 178 kts 202°
2026-05-07 22:30 1.42820 104.01203 1221 ft 171 kts 212°
2026-05-07 22:30 1.41860 104.00575 1023 ft 159 kts 209°
2026-05-07 22:31 1.40895 104.00123 814 ft 149 kts 200°
2026-05-07 22:31 1.39921 103.99791 536 ft 150 kts 198°
2026-05-07 22:31 1.38953 103.99466 310 ft 152 kts 202°
2026-05-07 22:31 1.37978 103.99057 148 ft 152 kts 204°
2026-05-07 22:32 1.37015 103.98642 39 ft 145 kts 204°
2026-05-07 22:32 1.36155 103.98283 28 ft 122 kts 203°
2026-05-07 22:32 1.35550 103.98023 27 ft 59 kts 202°
2026-05-07 22:32 1.35194 103.97871 27 ft 53 kts 204°
2026-05-07 22:33 1.35068 103.97820 27 ft 2 kts 188°
2026-05-07 22:33 1.35062 103.97819 27 ft 1 kts 186°
2026-05-07 22:33 1.35044 103.97823 27 ft 4 kts 163°
2026-05-07 22:33 1.35013 103.97850 27 ft 8 kts 122°
2026-05-07 22:34 1.34991 103.97900 27 ft 7 kts 111°
2026-05-07 22:34 1.34966 103.97956 27 ft 11 kts 115°
2026-05-07 22:34 1.34941 103.98032 27 ft 9 kts 84°
2026-05-07 22:34 1.34910 103.98091 27 ft 11 kts 109°
2026-05-07 22:35 1.34919 103.98153 27 ft 6 kts 75°
2026-05-07 22:35 1.34930 103.98196 27 ft 0 kts 77°
2026-05-07 22:36 1.34926 103.98177 27 ft 0 kts 76°